QPF
0.01 0.01 0.01 0.02 0.03 0.04 0.04 0.04 0.05 0.05 0.04 0.06 0.07 0.09 0.08 0.06 0.04 0.03 0.03 0.02 0.02 0.02 0.02 0.02 0.02 0.02 0.02 0.02 0.01 0.01 0.01 0.01 0.01 0.01 0.01 0.01 0.01 0.01 0.01 0.00 0.00 0.00 0.00
0.01 0.02 0.02 0.02 0.02 0.03 0.04 0.04 0.04 0.04 0.03 0.04 0.06 0.08 0.08 0.06 0.04 0.04 0.04 0.02 0.02 0.02 0.02 0.02 0.01 0.01 0.02 0.02 0.02 0.01 0.01 0.01 0.01 0.01 0.01 0.01 0.01 0.00 0.00 0.00 0.00 0.00 0.00
0.01 0.02 0.02 0.02 0.03 0.04 0.04 0.04 0.05 0.05 0.04 0.04 0.05 0.06 0.05 0.04 0.03 0.03 0.04 0.03 0.02 0.03 0.02 0.02 0.01 0.01 0.02 0.02 0.02 0.01 0.01 0.01 0.01 0.01 0.01 0.00 0.00 0.00 0.00 0.00 0.00 0.00 0.00
0.00 0.01 0.01 0.01 0.02 0.04 0.04 0.04 0.04 0.04 0.04 0.04 0.06 0.06 0.05 0.05 0.04 0.04 0.04 0.04 0.03 0.03 0.03 0.03 0.02 0.02 0.02 0.01 0.02 0.01 0.01 0.01 0.00 0.00 0.00 0.00 0.00 0.00 0.00 0.00 0.00 0.00 0.00
0.01 0.01 0.01 0.01 0.01 0.02 0.03 0.03 0.03 0.03 0.03 0.03 0.03 0.04 0.05 0.05 0.05 0.05 0.05 0.05 0.04 0.03 0.03 0.03 0.03 0.03 0.03 0.03 0.02 0.01 0.00 0.01 0.00 0.00 0.00 0.00 0.00 0.00 0.00 0.00 0.00 0.00 0.00
0.01 0.01 0.01 0.01 0.01 0.01 0.02 0.02 0.02 0.02 0.02 0.02 0.03 0.04 0.04 0.05 0.06 0.07 0.07 0.06 0.05 0.04 0.04 0.04 0.03 0.04 0.04 0.06 0.03 0.01 0.01 0.01 0.01 0.01 0.01 0.01 0.01 0.00 0.01 0.00 0.00 0.01 0.01
0.00 0.01 0.01 0.02 0.02 0.02 0.02 0.02 0.03 0.02 0.02 0.02 0.03 0.04 0.04 0.05 0.06 0.07 0.07 0.07 0.06 0.05 0.04 0.05 0.04 0.05 0.06 0.06 0.05 0.02 0.01 0.02 0.02 0.03 0.02 0.01 0.01 0.01 0.01 0.01 0.00 0.00 0.01
0.00 0.00 0.01 0.03 0.04 0.03 0.02 0.02 0.01 0.02 0.02 0.02 0.02 0.03 0.03 0.04 0.05 0.06 0.08 0.07 0.06 0.06 0.06 0.06 0.05 0.06 0.07 0.06 0.05 0.04 0.02 0.02 0.02 0.01 0.01 0.02 0.02 0.01 0.01 0.01 0.01 0.01 0.01
0.00 0.00 0.01 0.03 0.03 0.03 0.02 0.01 0.01 0.01 0.01 0.02 0.02 0.02 0.03 0.04 0.05 0.06 0.08 0.08 0.06 0.05 0.05 0.04 0.05 0.06 0.06 0.06 0.04 0.04 0.03 0.03 0.02 0.02 0.02 0.02 0.02 0.01 0.01 0.01 0.01 0.01 0.02
0.01 0.01 0.01 0.02 0.03 0.04 0.03 0.02 0.01 0.01 0.01 0.02 0.02 0.02 0.06 0.06 0.05 0.05 0.07 0.07 0.05 0.03 0.03 0.03 0.04 0.04 0.04 0.05 0.04 0.04 0.05 0.04 0.04 0.03 0.02 0.03 0.02 0.01 0.01 0.01 0.01 0.01 0.01
0.01 0.01 0.01 0.02 0.03 0.04 0.03 0.02 0.02 0.01 0.02 0.02 0.02 0.02 0.05 0.07 0.05 0.05 0.07 0.08 0.05 0.02 0.01 0.02 0.03 0.03 0.03 0.03 0.02 0.03 0.05 0.04 0.03 0.02 0.03 0.03 0.02 0.01 0.01 0.01 0.01 0.01 0.01
0.01 0.01 0.01 0.02 0.03 0.03 0.03 0.02 0.03 0.02 0.02 0.02 0.02 0.02 0.04 0.04 0.05 0.05 0.07 0.08 0.06 0.02 0.01 0.02 0.03 0.02 0.03 0.03 0.02 0.02 0.03 0.03 0.04 0.04 0.03 0.03 0.02 0.02 0.01 0.01 0.01 0.01 0.01
0.01 0.01 0.01 0.01 0.01 0.02 0.02 0.02 0.02 0.02 0.02 0.03 0.02 0.03 0.04 0.05 0.06 0.06 0.05 0.06 0.06 0.04 0.02 0.02 0.02 0.01 0.02 0.02 0.03 0.02 0.02 0.05 0.06 0.05 0.03 0.02 0.02 0.02 0.01 0.01 0.01 0.00 0.01
0.01 0.01 0.01 0.01 0.01 0.01 0.01 0.01 0.02 0.02 0.03 0.02 0.02 0.03 0.04 0.05 0.06 0.05 0.04 0.04 0.04 0.04 0.03 0.03 0.01 0.02 0.01 0.02 0.02 0.03 0.04 0.04 0.04 0.03 0.03 0.02 0.02 0.02 0.02 0.01 0.01 0.01 0.01
0.01 0.01 0.01 0.01 0.01 0.01 0.01 0.01 0.02 0.01 0.02 0.02 0.02 0.03 0.03 0.04 0.04 0.04 0.03 0.03 0.04 0.04 0.04 0.03 0.02 0.02 0.02 0.02 0.02 0.03 0.03 0.03 0.03 0.03 0.02 0.02 0.02 0.02 0.02 0.02 0.02 0.02 0.02
0.02 0.02 0.02 0.01 0.01 0.01 0.01 0.01 0.01 0.02 0.02 0.01 0.02 0.03 0.03 0.04 0.04 0.03 0.03 0.04 0.03 0.05 0.05 0.03 0.03 0.03 0.02 0.03 0.04 0.03 0.03 0.03 0.02 0.02 0.02 0.02 0.02 0.02 0.02 0.02 0.02 0.02 0.02
0.03 0.02 0.02 0.01 0.01 0.01 0.01 0.01 0.01 0.01 0.01 0.01 0.02 0.03 0.04 0.04 0.04 0.03 0.03 0.03 0.04 0.05 0.06 0.04 0.04 0.02 0.02 0.03 0.03 0.03 0.03 0.02 0.02 0.02 0.02 0.02 0.02 0.02 0.02 0.02 0.03 0.02 0.02
0.02 0.02 0.02 0.01 0.01 0.01 0.01 0.01 0.01 0.01 0.01 0.02 0.03 0.04 0.04 0.04 0.05 0.05 0.03 0.04 0.04 0.04 0.06 0.05 0.03 0.02 0.02 0.03 0.03 0.04 0.03 0.02 0.03 0.03 0.03 0.02 0.02 0.02 0.02 0.02 0.02 0.02 0.02
0.01 0.02 0.01 0.01 0.01 0.01 0.01 0.01 0.00 0.00 0.01 0.02 0.02 0.02 0.03 0.03 0.04 0.04 0.04 0.04 0.03 0.03 0.03 0.05 0.05 0.03 0.02 0.03 0.03 0.03 0.02 0.03 0.03 0.03 0.03 0.02 0.02 0.02 0.03 0.02 0.02 0.02 0.02
0.01 0.01 0.01 0.01 0.01 0.01 0.00 0.01 0.01 0.01 0.01 0.01 0.01 0.02 0.03 0.03 0.03 0.02 0.03 0.03 0.02 0.02 0.02 0.03 0.03 0.03 0.03 0.03 0.03 0.03 0.02 0.02 0.03 0.03 0.03 0.03 0.02 0.02 0.02 0.02 0.02 0.02 0.01
0.01 0.01 0.01 0.01 0.01 0.01 0.01 0.00 0.00 0.00 0.01 0.01 0.01 0.01 0.02 0.02 0.02 0.02 0.02 0.02 0.01 0.03 0.06 0.06 0.03 0.02 0.02 0.02 0.03 0.03 0.03 0.03 0.02 0.02 0.02 0.02 0.02 0.02 0.02 0.02 0.02 0.02 0.02
0.01 0.01 0.01 0.01 0.01 0.01 0.01 0.00 0.00 0.00 0.00 0.01 0.01 0.01 0.01 0.01 0.01 0.01 0.01 0.01 0.01 0.01 0.03 0.03 0.01 0.01 0.02 0.02 0.02 0.02 0.02 0.02 0.02 0.02 0.02 0.02 0.02 0.02 0.02 0.02 0.02 0.03 0.03
0.01 0.00 0.00 0.01 0.00 0.01 0.00 0.00 0.00 0.00 0.00 0.01 0.01 0.01 0.01 0.01 0.01 0.00 0.00 0.00 0.01 0.01 0.02 0.01 0.01 0.01 0.01 0.01 0.02 0.01 0.02 0.02 0.02 0.02 0.03 0.03 0.03 0.02 0.02 0.02 0.02 0.02 0.02
0.00 0.00 0.00 0.00 0.00 0.00 0.00 0.00 0.00 0.00 0.01 0.01 0.01 0.02 0.01 0.01 0.01 0.00 0.00 0.00 0.01 0.01 0.01 0.01 0.01 0.01 0.01 0.01 0.01 0.01 0.02 0.02 0.02 0.02 0.02 0.03 0.03 0.02 0.02 0.02 0.02 0.02 0.02
0.01 0.01 0.01 0.01 0.01 0.00 0.00 0.00 0.01 0.01 0.01 0.02 0.03 0.02 0.02 0.02 0.01 0.01 0.01 0.01 0.01 0.01 0.01 0.01 0.01 0.01 0.01 0.01 0.01 0.02 0.02 0.03 0.02 0.02 0.02 0.02 0.02 0.02 0.02 0.02 0.02 0.02 0.03
0.01 0.01 0.01 0.01 0.01 0.01 0.01 0.01 0.01 0.01 0.01 0.02 0.02 0.02 0.01 0.02 0.02 0.01 0.01 0.01 0.01 0.01 0.01 0.01 0.02 0.02 0.01 0.01 0.01 0.02 0.03 0.03 0.03 0.02 0.02 0.02 0.02 0.02 0.01 0.01 0.02 0.02 0.03
MSLP
1020.39 1020.28 1020.15 1019.98 1019.78 1019.58 1019.38 1019.21 1019.09 1019.01 1018.97 1018.96 1018.95 1018.91 1018.84 1018.73 1018.58 1018.41 1018.24 1018.10 1018.01 1018.00 1018.06 1018.22 1018.45 1018.75 1019.12 1019.54 1020.02 1020.53 1021.09 1021.68 1022.29 1022.89 1023.47 1024.01 1024.46 1024.82 1025.07 1025.19 1025.20 1025.11 1024.93
1020.61 1020.52 1020.40 1020.23 1020.03 1019.82 1019.61 1019.45 1019.34 1019.30 1019.30 1019.33 1019.36 1019.37 1019.34 1019.25 1019.12 1018.95 1018.79 1018.64 1018.55 1018.54 1018.60 1018.75 1018.97 1019.26 1019.59 1019.97 1020.38 1020.84 1021.33 1021.86 1022.42 1023.01 1023.59 1024.15 1024.67 1025.10 1025.44 1025.68 1025.80 1025.81 1025.73
1020.72 1020.67 1020.57 1020.43 1020.25 1020.05 1019.87 1019.72 1019.65 1019.63 1019.68 1019.76 1019.84 1019.90 1019.91 1019.86 1019.75 1019.61 1019.46 1019.32 1019.24 1019.23 1019.29 1019.42 1019.62 1019.86 1020.13 1020.44 1020.76 1021.12 1021.52 1021.96 1022.44 1022.97 1023.53 1024.09 1024.64 1025.15 1025.59 1025.94 1026.20 1026.35 1026.40
1020.72 1020.72 1020.67 1020.58 1020.43 1020.27 1020.12 1020.01 1019.97 1019.99 1020.07 1020.20 1020.33 1020.43 1020.49 1020.48 1020.41 1020.31 1020.19 1020.09 1020.03 1020.02 1020.08 1020.20 1020.36 1020.55 1020.76 1020.98 1021.20 1021.45 1021.73 1022.05 1022.43 1022.88 1023.37 1023.91 1024.47 1025.02 1025.55 1026.01 1026.41 1026.71 1026.91
1020.65 1020.71 1020.72 1020.67 1020.59 1020.47 1020.36 1020.29 1020.27 1020.33 1020.44 1020.60 1020.77 1020.91 1021.02 1021.06 1021.05 1021.00 1020.93 1020.87 1020.85 1020.87 1020.94 1021.05 1021.18 1021.32 1021.47 1021.60 1021.73 1021.87 1022.03 1022.23 1022.50 1022.84 1023.25 1023.73 1024.26 1024.83 1025.40 1025.95 1026.47 1026.91 1027.27
1020.56 1020.67 1020.73 1020.75 1020.71 1020.64 1020.57 1020.53 1020.55 1020.62 1020.76 1020.94 1021.13 1021.31 1021.46 1021.56 1021.61 1021.63 1021.63 1021.63 1021.65 1021.71 1021.80 1021.91 1022.03 1022.15 1022.24 1022.32 1022.37 1022.42 1022.48 1022.57 1022.73 1022.95 1023.26 1023.65 1024.12 1024.66 1025.24 1025.85 1026.44 1027.00 1027.48
1020.51 1020.65 1020.76 1020.82 1020.83 1020.80 1020.77 1020.75 1020.79 1020.87 1021.02 1021.21 1021.43 1021.64 1021.83 1021.98 1022.10 1022.18 1022.25 1022.32 1022.41 1022.51 1022.63 1022.76 1022.89 1023.00 1023.07 1023.11 1023.13 1023.12 1023.11 1023.12 1023.18 1023.29 1023.49 1023.78 1024.16 1024.63 1025.18 1025.79 1026.42 1027.05 1027.63
1020.53 1020.70 1020.84 1020.93 1020.97 1020.98 1020.97 1020.97 1021.02 1021.11 1021.26 1021.46 1021.69 1021.92 1022.15 1022.35 1022.52 1022.68 1022.82 1022.96 1023.10 1023.26 1023.42 1023.58 1023.72 1023.84 1023.93 1023.97 1023.98 1023.95 1023.91 1023.88 1023.86 1023.89 1023.99 1024.17 1024.45 1024.82 1025.31 1025.87 1026.50 1027.15 1027.78
1020.65 1020.83 1020.99 1021.11 1021.17 1021.20 1021.21 1021.23 1021.28 1021.37 1021.53 1021.72 1021.96 1022.21 1022.46 1022.71 1022.94 1023.15 1023.36 1023.55 1023.75 1023.95 1024.15 1024.34 1024.51 1024.66 1024.78 1024.85 1024.89 1024.89 1024.86 1024.81 1024.76 1024.73 1024.75 1024.83 1025.00 1025.27 1025.66 1026.16 1026.74 1027.37 1028.01
1020.86 1021.06 1021.22 1021.35 1021.43 1021.47 1021.50 1021.53 1021.59 1021.70 1021.85 1022.05 1022.29 1022.56 1022.84 1023.11 1023.39 1023.65 1023.90 1024.14 1024.38 1024.61 1024.84 1025.06 1025.26 1025.44 1025.60 1025.72 1025.81 1025.86 1025.87 1025.84 1025.79 1025.74 1025.70 1025.71 1025.79 1025.96 1026.25 1026.66 1027.18 1027.76 1028.39
1021.14 1021.34 1021.51 1021.65 1021.74 1021.80 1021.85 1021.90 1021.97 1022.09 1022.26 1022.47 1022.72 1023.00 1023.29 1023.60 1023.90 1024.19 1024.47 1024.75 1025.01 1025.26 1025.50 1025.73 1025.96 1026.17 1026.37 1026.54 1026.69 1026.80 1026.87 1026.89 1026.87 1026.83 1026.77 1026.73 1026.74 1026.83 1027.04 1027.36 1027.80 1028.33 1028.91
1021.43 1021.64 1021.82 1021.96 1022.07 1022.15 1022.22 1022.30 1022.40 1022.54 1022.73 1022.95 1023.21 1023.51 1023.82 1024.14 1024.46 1024.78 1025.08 1025.37 1025.64 1025.90 1026.15 1026.38 1026.61 1026.84 1027.07 1027.29 1027.49 1027.66 1027.79 1027.87 1027.90 1027.88 1027.83 1027.77 1027.75 1027.78 1027.92 1028.17 1028.53 1029.00 1029.53
1021.67 1021.89 1022.08 1022.24 1022.36 1022.47 1022.57 1022.69 1022.83 1023.00 1023.21 1023.46 1023.74 1024.05 1024.38 1024.72 1025.06 1025.39 1025.71 1026.00 1026.28 1026.54 1026.78 1027.00 1027.23 1027.46 1027.70 1027.94 1028.17 1028.39 1028.58 1028.71 1028.79 1028.81 1028.79 1028.74 1028.70 1028.70 1028.79 1028.99 1029.30 1029.71 1030.19
1021.81 1022.04 1022.24 1022.41 1022.56 1022.70 1022.85 1023.00 1023.19 1023.40 1023.65 1023.92 1024.23 1024.56 1024.90 1025.26 1025.62 1025.97 1026.30 1026.61 1026.89 1027.15 1027.38 1027.60 1027.81 1028.03 1028.25 1028.49 1028.74 1028.99 1029.20 1029.38 1029.50 1029.56 1029.57 1029.55 1029.52 1029.52 1029.58 1029.74 1030.00 1030.36 1030.79
1021.80 1022.04 1022.25 1022.44 1022.62 1022.80 1022.99 1023.20 1023.43 1023.69 1023.98 1024.29 1024.62 1024.97 1025.34 1025.72 1026.10 1026.47 1026.83 1027.16 1027.45 1027.71 1027.94 1028.15 1028.34 1028.53 1028.74 1028.96 1029.19 1029.43 1029.67 1029.86 1030.02 1030.12 1030.16 1030.17 1030.16 1030.17 1030.23 1030.37 1030.59 1030.90 1031.28
1021.62 1021.87 1022.09 1022.31 1022.52 1022.75 1022.99 1023.26 1023.54 1023.85 1024.17 1024.52 1024.88 1025.26 1025.65 1026.06 1026.47 1026.87 1027.26 1027.62 1027.93 1028.21 1028.44 1028.63 1028.81 1028.97 1029.15 1029.33 1029.54 1029.77 1029.99 1030.19 1030.36 1030.49 1030.57 1030.62 1030.64 1030.67 1030.73 1030.85 1031.04 1031.31 1031.63
1021.28 1021.53 1021.77 1022.02 1022.27 1022.55 1022.85 1023.17 1023.51 1023.86 1024.23 1024.61 1025.00 1025.41 1025.83 1026.27 1026.71 1027.15 1027.57 1027.96 1028.31 1028.60 1028.84 1029.04 1029.20 1029.34 1029.48 1029.63 1029.80 1030.00 1030.20 1030.40 1030.59 1030.74 1030.85 1030.93 1030.98 1031.03 1031.10 1031.21 1031.37 1031.59 1031.86
1020.80 1021.07 1021.33 1021.61 1021.91 1022.24 1022.60 1022.98 1023.37 1023.78 1024.18 1024.60 1025.02 1025.45 1025.90 1026.36 1026.83 1027.30 1027.76 1028.18 1028.56 1028.88 1029.14 1029.33 1029.48 1029.60 1029.72 1029.84 1029.98 1030.15 1030.34 1030.53 1030.73 1030.90 1031.04 1031.16 1031.24 1031.32 1031.40 1031.50 1031.63 1031.81 1032.02
1020.25 1020.53 1020.83 1021.15 1021.50 1021.89 1022.31 1022.74 1023.18 1023.63 1024.07 1024.52 1024.96 1025.41 1025.88 1026.36 1026.85 1027.35 1027.83 1028.28 1028.68 1029.02 1029.29 1029.49 1029.64 1029.75 1029.85 1029.95 1030.07 1030.22 1030.40 1030.61 1030.81 1031.01 1031.19 1031.34 1031.47 1031.57 1031.66 1031.75 1031.86 1031.99 1032.15
1019.68 1019.99 1020.32 1020.69 1021.10 1021.54 1022.01 1022.49 1022.98 1023.46 1023.94 1024.40 1024.86 1025.33 1025.80 1026.29 1026.79 1027.30 1027.79 1028.25 1028.66 1029.01 1029.28 1029.49 1029.64 1029.75 1029.84 1029.94 1030.05 1030.21 1030.40 1030.62 1030.85 1031.09 1031.31 1031.50 1031.66 1031.79 1031.90 1031.99 1032.09 1032.19 1032.30
1019.14 1019.49 1019.86 1020.27 1020.73 1021.22 1021.73 1022.25 1022.77 1023.28 1023.78 1024.25 1024.72 1025.19 1025.66 1026.15 1026.65 1027.14 1027.63 1028.08 1028.49 1028.83 1029.11 1029.31 1029.46 1029.57 1029.67 1029.78 1029.91 1030.08 1030.30 1030.55 1030.82 1031.10 1031.36 1031.60 1031.80 1031.97 1032.10 1032.20 1032.29 1032.37 1032.46
1018.67 1019.05 1019.47 1019.92 1020.41 1020.93 1021.47 1022.01 1022.55 1023.07 1023.57 1024.05 1024.51 1024.97 1025.44 1025.91 1026.39 1026.87 1027.33 1027.77 1028.15 1028.48 1028.75 1028.95 1029.10 1029.22 1029.34 1029.46 1029.62 1029.83 1030.07 1030.36 1030.68 1031.00 1031.31 1031.59 1031.83 1032.03 1032.19 1032.32 1032.42 1032.50 1032.58
1018.28 1018.69 1019.13 1019.61 1020.11 1020.65 1021.19 1021.73 1022.26 1022.78 1023.27 1023.74 1024.19 1024.64 1025.09 1025.55 1026.00 1026.46 1026.89 1027.30 1027.66 1027.97 1028.22 1028.41 1028.57 1028.71 1028.84 1029.00 1029.19 1029.43 1029.71 1030.04 1030.39 1030.75 1031.10 1031.42 1031.70 1031.94 1032.13 1032.28 1032.40 1032.51 1032.60
1017.98 1018.40 1018.84 1019.32 1019.82 1020.33 1020.85 1021.37 1021.87 1022.36 1022.83 1023.28 1023.72 1024.15 1024.59 1025.03 1025.47 1025.90 1026.31 1026.69 1027.03 1027.31 1027.56 1027.75 1027.92 1028.07 1028.23 1028.41 1028.63 1028.91 1029.22 1029.58 1029.96 1030.34 1030.71 1031.06 1031.36 1031.63 1031.84 1032.03 1032.19 1032.33 1032.46
1017.74 1018.15 1018.58 1019.03 1019.49 1019.96 1020.43 1020.89 1021.35 1021.79 1022.23 1022.65 1023.08 1023.50 1023.93 1024.36 1024.79 1025.21 1025.61 1025.98 1026.30 1026.59 1026.82 1027.03 1027.20 1027.37 1027.55 1027.76 1028.01 1028.30 1028.63 1029.00 1029.39 1029.77 1030.15 1030.50 1030.81 1031.09 1031.33 1031.54 1031.74 1031.92 1032.09
1017.55 1017.93 1018.32 1018.72 1019.12 1019.52 1019.92 1020.31 1020.71 1021.10 1021.50 1021.90 1022.31 1022.73 1023.16 1023.59 1024.03 1024.46 1024.86 1025.23 1025.56 1025.85 1026.10 1026.31 1026.51 1026.70 1026.90 1027.12 1027.38 1027.68 1028.01 1028.36 1028.73 1029.09 1029.45 1029.78 1030.08 1030.35 1030.60 1030.84 1031.06 1031.28 1031.50
Thickness
5728 5729 5729 5729 5728 5727 5726 5725 5723 5722 5721 5719 5717 5715 5714 5713 5712 5713 5712 5711 5710 5709 5707 5706 5704 5702 5700 5697 5695 5693 5690 5687 5687 5684 5680 5680 5680 5679 5678 5678 5678 5677 5677
5723 5724 5725 5724 5724 5723 5722 5721 5720 5719 5718 5716 5715 5713 5711 5710 5709 5708 5708 5707 5707 5706 5704 5702 5700 5698 5696 5693 5691 5689 5685 5683 5682 5679 5675 5671 5671 5672 5673 5672 5672 5672 5672
5719 5720 5721 5721 5720 5719 5719 5719 5717 5716 5715 5714 5712 5710 5707 5705 5704 5704 5704 5704 5703 5702 5701 5699 5697 5695 5693 5690 5688 5687 5684 5679 5678 5677 5673 5667 5663 5663 5665 5666 5666 5666 5666
5719 5718 5718 5718 5717 5717 5717 5716 5714 5713 5712 5711 5709 5707 5703 5700 5700 5700 5700 5700 5699 5698 5697 5695 5693 5691 5689 5687 5685 5684 5682 5679 5675 5673 5673 5671 5667 5661 5658 5659 5661 5661 5661
5717 5716 5716 5717 5716 5715 5714 5712 5711 5709 5709 5707 5706 5703 5700 5699 5698 5697 5696 5696 5695 5694 5694 5692 5690 5688 5686 5684 5682 5681 5679 5677 5674 5671 5669 5666 5664 5662 5657 5654 5654 5655 5656
5714 5714 5714 5714 5712 5712 5711 5709 5707 5705 5705 5703 5702 5700 5697 5695 5694 5693 5692 5691 5691 5690 5690 5689 5687 5685 5683 5682 5680 5678 5677 5675 5673 5670 5668 5665 5663 5659 5656 5652 5650 5649 5650
5711 5709 5709 5709 5708 5707 5706 5705 5703 5701 5700 5699 5698 5697 5695 5693 5691 5690 5690 5688 5687 5687 5686 5686 5684 5683 5681 5680 5678 5676 5674 5672 5670 5668 5666 5665 5663 5661 5657 5652 5648 5646 5645
5707 5706 5706 5705 5704 5703 5702 5701 5699 5698 5697 5696 5695 5694 5693 5691 5690 5689 5688 5687 5686 5685 5684 5683 5682 5680 5679 5677 5675 5673 5671 5670 5668 5667 5664 5663 5661 5660 5657 5653 5648 5643 5641
5703 5702 5702 5701 5700 5699 5699 5698 5696 5695 5694 5693 5692 5691 5690 5689 5688 5687 5686 5685 5684 5683 5682 5681 5679 5677 5676 5675 5673 5670 5669 5667 5665 5664 5662 5661 5659 5658 5656 5654 5651 5645 5639
5697 5698 5697 5697 5696 5696 5695 5694 5693 5692 5691 5689 5689 5688 5687 5686 5685 5684 5683 5683 5682 5681 5679 5678 5675 5674 5673 5671 5669 5667 5666 5664 5662 5661 5659 5658 5657 5655 5653 5651 5648 5646 5642
5692 5692 5692 5692 5691 5690 5690 5689 5688 5687 5686 5685 5685 5684 5683 5683 5682 5681 5681 5680 5679 5677 5676 5674 5672 5671 5669 5668 5666 5664 5663 5661 5659 5658 5657 5655 5654 5652 5650 5647 5645 5642 5639
5688 5688 5687 5686 5686 5685 5684 5684 5683 5683 5682 5682 5680 5680 5679 5679 5678 5677 5677 5676 5675 5673 5672 5670 5669 5667 5666 5664 5662 5661 5659 5657 5655 5654 5653 5652 5651 5648 5646 5644 5641 5639 5637
5684 5683 5682 5681 5681 5680 5680 5680 5679 5679 5679 5678 5676 5675 5674 5674 5673 5673 5673 5672 5670 5669 5667 5666 5665 5663 5662 5661 5659 5658 5656 5654 5653 5651 5650 5648 5647 5645 5642 5640 5638 5635 5633
5679 5678 5677 5676 5677 5676 5676 5675 5675 5675 5675 5673 5672 5670 5670 5670 5670 5669 5668 5668 5666 5664 5663 5662 5660 5659 5658 5657 5655 5654 5652 5651 5649 5648 5647 5646 5644 5643 5640 5638 5635 5632 5628
5675 5674 5673 5673 5672 5672 5672 5672 5671 5671 5670 5669 5667 5666 5666 5666 5666 5665 5664 5663 5661 5660 5658 5657 5655 5654 5653 5653 5651 5650 5649 5647 5645 5644 5643 5642 5642 5641 5639 5637 5633 5629 5625
5671 5671 5671 5671 5669 5668 5668 5668 5667 5666 5665 5664 5663 5662 5661 5661 5661 5660 5659 5658 5656 5655 5653 5652 5651 5649 5650 5649 5648 5647 5645 5643 5642 5640 5639 5639 5638 5637 5636 5634 5632 5629 5624
5669 5668 5668 5667 5666 5665 5665 5664 5663 5662 5660 5659 5658 5657 5656 5656 5655 5655 5653 5652 5651 5650 5648 5647 5646 5645 5645 5645 5644 5643 5641 5639 5638 5637 5635 5635 5634 5632 5631 5630 5627 5625 5622
5665 5666 5666 5665 5664 5663 5661 5660 5659 5657 5655 5654 5652 5652 5651 5650 5650 5649 5648 5646 5645 5644 5643 5642 5641 5640 5640 5640 5639 5638 5636 5635 5634 5633 5631 5630 5629 5628 5627 5624 5621 5619 5617
5663 5664 5664 5663 5661 5659 5658 5655 5653 5651 5649 5648 5647 5647 5646 5645 5644 5643 5642 5641 5640 5639 5638 5637 5636 5636 5635 5635 5634 5633 5630 5629 5628 5628 5628 5627 5625 5625 5623 5619 5616 5613 5611
5660 5660 5659 5658 5657 5655 5653 5651 5648 5646 5645 5644 5643 5642 5641 5640 5639 5638 5637 5636 5635 5634 5633 5632 5632 5632 5631 5630 5629 5628 5626 5624 5623 5623 5623 5622 5621 5620 5618 5615 5612 5608 5606
5655 5655 5654 5652 5651 5649 5648 5645 5643 5641 5641 5640 5638 5637 5637 5636 5635 5634 5632 5631 5629 5628 5627 5626 5626 5626 5626 5626 5625 5623 5621 5620 5619 5618 5617 5617 5617 5616 5614 5611 5609 5607 5604
5648 5647 5647 5646 5645 5644 5642 5639 5638 5638 5637 5635 5633 5632 5631 5631 5630 5628 5626 5625 5623 5622 5621 5620 5620 5620 5620 5620 5619 5619 5617 5617 5615 5614 5614 5613 5612 5611 5609 5606 5605 5602 5599
5641 5640 5639 5638 5637 5637 5636 5634 5634 5633 5630 5628 5627 5626 5626 5625 5624 5622 5620 5618 5617 5616 5615 5614 5613 5613 5614 5614 5614 5613 5612 5611 5610 5609 5609 5608 5607 5605 5603 5601 5599 5596 5592
5633 5633 5632 5631 5630 5630 5630 5630 5630 5628 5625 5623 5621 5621 5619 5619 5618 5617 5616 5614 5612 5610 5609 5608 5607 5607 5607 5607 5607 5607 5606 5605 5604 5603 5603 5602 5601 5599 5597 5595 5592 5590 5588
5627 5626 5625 5624 5624 5624 5624 5624 5623 5621 5619 5617 5616 5615 5614 5613 5612 5611 5611 5610 5609 5608 5606 5605 5604 5602 5602 5604 5604 5602 5601 5599 5598 5596 5595 5593 5592 5590 5589 5587 5586 5584 5582
5620 5620 5619 5619 5619 5618 5618 5617 5617 5615 5614 5611 5610 5609 5608 5607 5606 5605 5604 5604 5604 5604 5603 5602 5600 5600 5600 5600 5599 5598 5597 5595 5593 5590 5588 5588 5587 5585 5584 5582 5580 5578 5577